Location: ??????????
(54.7074°N, 39.2552°E)
Time: 11:12:41
(UTC+00:00)

Daily predictions for brighter satellites

Satellite Brightness Start Highest point End
(mag) Time Altitude Azimuth Time Altitude Azimuth Time Altitude Azimuth
ERS-1 Rocket 3.3 18:30:10 10° S 18:35:10 68° WSW 18:40:13 10° NNW
ATLAS 2AS CENTAUR R/B 4.2 18:28:53 10° W 18:35:39 42° N 18:42:09 10° ENE
CZ-4C R/B 3.9 18:32:26 10° N 18:36:16 61° WNW 18:40:14 10° SSW
SPOT 3 Rocket 3.6 18:31:13 10° SSE 18:36:21 89° ENE 18:41:33 10° NNW
Cosmos 614 Rocket 4.3 18:33:21 10° S 18:38:21 49° ESE 18:43:24 10° NE
Cosmos 1818 4.2 18:33:50 10° S 18:38:44 36° ESE 18:43:42 10° NE
Meteor 1-27 Rocket 3.7 18:34:15 10° S 18:39:45 80° ESE 18:45:24 10° NNE
Lacrosse 4 Rocket 1.7 18:37:10 10° NW 18:41:11 57° WSW 18:45:15 10° SSE
Cosmos 1340 Rocket 2.8 18:40:22 10° S 18:44:21 81° ESE 18:48:21 10° NNE
Resurs 01 Rocket 4.4 18:44:22 10° WSW 18:46:32 13° W 18:48:42 10° NW
Okean O Rocket 4.3 18:46:36 10° WSW 18:49:05 15° W 18:51:33 10° NW
SL-16 R/B 4.4 18:45:09 10° NNW 18:49:21 21° NNE 18:53:34 10° ENE
Cosmos 1833 Rocket 3.8 18:45:28 10° SSE 18:49:52 24° ESE 18:54:17 10° NE
Cosmos 1656 3.8 18:44:27 10° NW 18:49:55 73° WSW 18:55:24 10° SSE
Terra 2.4 18:47:00 10° S 18:51:38 56° W 18:56:17 10° NNW
Cosmos 1805 3.2 18:50:15 10° NNW 18:53:58 76° W 18:57:40 10° S
H-2A R/B 4.3 18:51:01 10° ESE 18:54:18 22° ENE 18:57:38 10° N
Cosmos 1743 Rocket 4.4 18:51:45 10° NNW 18:56:01 48° W 19:00:17 10° SSW
Cosmos 1766 3.9 18:53:16 10° N 18:56:52 41° ENE 19:00:23 10° SE
Cosmos 1553 Rocket 4.5 18:54:11 10° N 19:00:03 48° ENE 19:05:57 10° SE
Cosmos 1603 4.3 18:54:40 10° SW 19:00:19 64° NW 19:06:03 10° NNE
Cosmos 2082 Rocket 4.3 19:02:57 10° E 19:03:30 10° E 19:04:02 10° E
Cosmos 1428 Rocket 4.5 19:00:05 10° S 19:06:10 75° E 19:12:17 10° NNE
Cosmos 2360 4.3 19:01:41 10° NW 19:07:27 84° WSW 19:13:00 11° SSE
Landsat 5 3.4 19:06:52 10° NNE 19:10:37 59° ESE 19:14:24 10° S
Cosmos 1470 3.8 19:07:50 10° N 19:11:10 30° ENE 19:14:18 11° SE
Cosmos 1151 Rocket 3.2 19:08:36 10° SSW 19:12:56 74° WNW 19:17:16 10° N
BREEZE-M DEB (TANK) 4.5 19:09:48 10° WSW 19:13:52 57° SSE 19:30:50 10° E
USA 281 3.3 19:07:21 10° SSE 19:13:57 77° WSW 19:20:36 10° NNW
Cosmos 1975 3.1 19:10:37 10° NNW 19:14:31 62° W 19:18:24 10° S
Meteor 1-18 Rocket 4.4 19:11:21 10° S 19:17:13 65° E 19:23:03 10° NNE
NOSS 3-3 (A) 4.0 19:12:20 10° SSW 19:17:43 53° SE 19:24:03 10° NE
MOS 1 Rocket 4.4 19:15:58 10° S 19:21:04 48° W 19:26:19 10° NNW
Cosmos 1092 Rocket 4.1 19:18:11 10° S 19:24:28 79° E 19:30:50 10° NNE
Cosmos 220 Rocket 4.2 19:23:16 10° SSW 19:27:35 76° WNW 19:31:54 10° NNE
Cosmos 1908 4.3 19:24:51 10° N 19:28:05 31° ENE 19:30:53 12° SE
ARIANE 5 R/B 2.9 19:25:29 13° SSE 19:29:16 59° ENE 19:33:31 10° N
NOSS 3-4 (A) 3.8 19:24:41 10° NW 19:31:19 83° SW 19:38:50 11° SE
NOSS 3-4 (C) 3.8 19:24:47 10° NW 19:31:25 83° SW 19:38:57 11° SE
Cosmos 1328 Rocket 3.5 19:28:22 10° S 19:32:41 81° E 19:37:01 10° NNE
CZ-2C R/B 4.3 19:29:49 10° NNE 19:34:03 39° E 19:37:29 14° SSE
Cosmos 1140 Rocket 4.1 19:34:28 12° S 19:38:49 39° ESE 19:43:38 10° NE
OPS 6432 4.4 19:39:17 10° NW 19:42:33 67° NE 19:45:18 12° ESE
Cosmos 1515 Rocket 3.8 19:40:01 14° SSE 19:43:31 52° E 19:47:43 10° NNE
Spot 4 4.5 19:40:14 13° SE 19:44:20 47° ENE 19:48:56 10° N
Cosmos 2322 Rocket 4.2 19:40:03 10° NNW 19:44:42 25° NNE 19:49:21 10° E
Cosmos 1697 Rocket 2.9 19:39:07 10° NW 19:44:43 67° WSW 19:49:25 15° SSE
Cosmos 1626 2.2 19:45:19 10° SSW 19:48:30 59° WNW 19:51:42 10° N
Cosmos 1470 Rocket 3.9 19:46:26 10° NNW 19:50:51 63° W 19:54:36 14° S
NOSS 3-3 (C) 3.8 19:45:43 10° SW 19:51:17 75° SE 19:58:00 10° NE
PSLV R/B 4.4 19:48:06 10° NNE 19:52:00 43° E 19:54:49 17° SSE
Cosmos 1869 Rocket 4.1 19:48:12 10° N 19:52:29 50° ENE 19:55:52 16° SE
Cosmos 1633 Rocket 4.1 19:49:36 10° NNW 19:53:45 40° W 19:57:52 10° SSW
Cosmos 1707 3.2 19:51:54 17° SSE 19:54:17 40° E 19:57:43 10° NNE
Cosmos 1980 Rocket 2.3 19:49:12 10° NNW 19:54:58 83° ENE 19:59:53 14° SE
Cosmos 1300 4.4 19:53:02 10° NNE 19:55:52 21° ENE 19:58:36 10° ESE
USA 234 3.5 19:50:48 10° E 19:57:21 74° N 20:03:53 10° W
Cosmos 2333 Rocket 4.2 19:55:05 10° NNW 19:59:46 25° NNE 20:04:28 10° E
Cosmos 1441 Rocket 3.5 19:57:21 10° N 20:00:51 52° ENE 20:03:19 18° SE
Cosmos 44 Rocket 4.2 19:59:23 10° WNW 20:03:51 35° WSW 20:07:10 16° S
Lacrosse 5 rocket 1.3 20:01:50 10° WNW 20:06:02 64° SSW 20:09:28 14° SE
Cosmos 540 Rocket 3.9 20:01:22 10° NNW 20:06:30 59° ENE 20:10:59 13° SE
Cosmos 1763 Rocket 3.6 20:03:14 10° NNW 20:08:36 77° ENE 20:12:54 16° SSE
Cosmos 468 Rocket 4.4 20:05:48 10° NNW 20:11:05 60° ENE 20:15:39 13° SE
Cosmos 1066 Rocket 4.5 20:05:20 10° SSW 20:11:12 78° WNW 20:17:06 10° NNE
Meteor 2-12 Rocket 4.5 20:06:04 12° S 20:11:52 89° E 20:18:05 10° NNE
Cosmos 1842 3.0 20:10:07 17° S 20:12:51 83° E 20:16:33 10° NNE
Cosmos 1674 2.4 20:11:20 17° SSW 20:13:58 84° W 20:17:29 10° N
Cosmos 1933 Rocket 3.7 20:11:28 10° NNW 20:15:49 66° W 20:19:05 17° S
Cosmos 407 Rocket 3.7 20:16:11 16° S 20:20:21 56° ESE 20:25:28 10° NNE
GP-B 4.2 20:16:40 10° NNE 20:20:39 32° E 20:23:40 15° SE
MINOTAUR 4 R/B 3.6 20:18:38 10° NNE 20:21:37 78° WNW 20:23:36 19° SSW
Cosmos 1818 4.0 20:16:38 10° WSW 20:22:04 66° NW 20:27:34 10° NE
Cosmos 2369 3.7 20:16:37 10° NW 20:22:22 84° WSW 20:26:58 16° SSE
Cosmos 1607 4.0 20:16:45 10° SSW 20:23:10 70° SE 20:29:39 10° NE
KORONAS-FOTON 3.7 20:20:40 17° SSW 20:23:23 83° WNW 20:27:08 10° N
ATLAS 2AS CENTAUR R/B 3.8 20:21:10 10° NW 20:27:57 47° NNE 20:34:28 10° E
H-2A R/B 2.7 20:25:54 19° S 20:28:52 63° WSW 20:33:10 10° NNW
Cosmos 1455 4.5 20:30:32 10° NNE 20:32:36 15° ENE 20:34:39 10° E
Cosmos 2219 Rocket 4.3 20:28:14 10° NNW 20:32:52 25° NNE 20:37:29 10° E
Cosmos 1833 Rocket 2.8 20:27:37 10° SW 20:33:14 78° NW 20:38:54 10° NNE
SL-16 R/B 2.9 20:29:13 10° NNW 20:34:47 52° NE 20:40:19 10° SE
COSMOS 2406 3.9 20:33:18 18° SSE 20:37:02 38° ESE 20:42:19 10° NE
ALOS 2 2.6 20:34:53 20° SSE 20:37:57 89° W 20:42:22 10° NNW
Meteor 1-12 Rocket 4.4 20:33:20 10° NNW 20:39:17 83° ENE 20:43:55 18° SSE
S3M 4.2 20:33:06 10° NNW 20:39:29 71° W 20:44:31 17° S
Cosmos 1758 3.3 20:40:31 10° N 20:44:22 71° ENE 20:46:48 22° SSE
Cosmos 2082 Rocket 2.5 20:42:10 18° S 20:46:16 51° ESE 20:51:47 10° NE
Cosmos 1470 4.1 20:43:16 10° NNW 20:46:29 28° W 20:48:57 14° SW
Cosmos 2360 Rocket 3.5 20:41:39 10° NNW 20:46:59 39° NE 20:52:17 10° ESE
Cosmos 2251 Rocket 3.5 20:44:25 15° SSW 20:48:49 80° ESE 20:54:09 10° NNE
Meteor 2-10 Rocket 3.8 20:47:41 10° NNW 20:53:34 84° WSW 20:57:48 19° S
Cosmos 1707 Rocket 4.1 20:51:02 20° SSE 20:53:49 47° E 20:58:07 10° NNE
GEOS 3 Rocket 3.6 20:49:07 10° NE 20:54:21 88° NNW 20:59:31 10° SW
SL-08 ROCKET BODY 4.5 20:50:52 16° SSW 20:55:54 86° W 21:02:07 10° N
Cosmos 724 4.3 20:53:16 10° SW 20:59:10 88° NW 21:05:02 10° NE
Cosmos 2315 Rocket 4.1 20:53:37 10° NNW 20:59:55 72° W 21:04:44 18° S
Meteor 1-13 Rocket 4.5 20:57:59 15° SSW 21:02:59 74° WNW 21:08:51 10° NNE
ARIANE 5 R/B 4.4 21:02:57 11° SW 21:06:01 21° W 21:09:20 10° NW
Okean 3 4.2 21:05:01 20° SSE 21:07:26 41° E 21:11:20 10° NNE
Cosmos 2237 4.2 21:03:48 10° NNW 21:09:36 88° NE 21:14:35 14° SSE
H-2A R/B 2.7 21:05:57 10° NNE 21:10:14 46° E 21:12:54 21° SSE
Cosmos 2285 Rocket 4.3 21:04:14 10° SW 21:10:33 69° WNW 21:16:57 10° NNE
Meteor 1-4 Rocket 4.2 21:10:32 14° ESE 21:11:48 17° E 21:13:49 10° NE
Cosmos 1315 Rocket 4.5 21:14:00 14° SE 21:16:20 23° E 21:19:29 10° NE
BREEZE-M DEB (TANK) 4.1 21:15:44 10° SW 21:19:00 45° SSE 21:28:19 10° E
Cosmos 1908 Rocket 4.2 21:15:30 10° N 21:19:50 50° ENE 21:23:12 16° SE
Cosmos 1140 Rocket 4.5 21:15:32 10° SW 21:20:33 45° NW 21:25:33 10° NNE
Cosmos 2278 3.7 21:14:56 10° NW 21:20:40 74° WSW 21:25:10 17° SSE
Cosmos 1346 Rocket 2.7 21:17:46 10° NNW 21:21:40 75° WSW 21:23:58 23° S
SL-24 R/B 4.4 21:18:36 10° NNE 21:23:20 86° ESE 21:27:08 19° SSW
Cosmos 1733 Rocket 3.3 21:19:10 10° NNW 21:23:28 60° W 21:26:12 21° S
SL-4 R/B 4.3 21:27:36 11° SE 21:27:36 11° SE 21:28:37 10° ESE
Cosmos 2322 Rocket 2.4 21:23:59 10° NNW 21:29:40 75° NE 21:35:21 10° SE
Helios 1A Rocket 4.2 21:26:17 10° SE 21:29:44 32° ENE 21:33:11 10° N
Cosmos 1400 Rocket 3.0 21:27:50 20° SSW 21:30:29 65° WNW 21:34:26 10° N
Cosmos 1300 3.3 21:27:24 10° NNW 21:30:46 39° W 21:32:38 22° SSW
Cosmos 841 Rocket 3.5 21:26:58 10° NNW 21:32:12 71° WSW 21:36:05 18° SSE
BREEZE-M DEB (TANK) 1.4 21:28:46 10° WSW 21:32:35 59° S 21:34:36 10° E
Meteor 1-21 4.3 21:28:43 19° S 21:32:56 82° ESE 21:38:46 10° NNE
Cosmos 1980 Rocket 3.7 21:33:58 10° NW 21:38:20 23° WSW 21:41:37 14° SW
USA 234 3.2 21:33:47 10° ESE 21:40:22 84° SSW 21:46:58 10° WNW
Orbus 7S? 2.7 21:37:27 10° WSW 21:40:51 82° NNW 21:43:35 10° ENE
Lacrosse 5 rocket 2.9 21:40:55 10° W 21:43:43 18° SW 21:44:16 17° SW
Okean 1-7 3.2 21:41:35 21° S 21:44:23 62° E 21:48:40 10° NNE
Cosmos 2333 Rocket 2.5 21:39:18 10° NNW 21:45:02 72° NE 21:50:47 10° SE
Cosmos 2228 Rocket 3.5 21:41:50 18° SSW 21:45:04 57° WNW 21:49:34 10° N
Cosmos 1242 Rocket 4.2 21:47:51 13° SE 21:49:20 17° E 21:51:19 10° NE
Cosmos 1356 Rocket 3.6 21:51:21 20° SSW 21:54:07 65° WNW 21:58:18 10° N
Cosmos 1953 2.2 21:50:40 10° NNW 21:54:35 76° W 21:57:01 22° S
SL-27 R/B 4.1 21:56:27 13° SE 21:57:35 15° ESE 21:59:20 10° ENE
GP-B 4.1 21:53:50 10° NNW 21:57:53 36° WNW 22:00:59 16° SW
Genesis I 3.8 21:59:24 23° S 22:00:59 35° SE 22:04:16 10° ENE
SL-14 R/B 4.4 22:01:00 15° SW 22:03:45 35° WNW 22:07:17 10° N
Cosmos 1703 Rocket 3.8 22:01:24 19° S 22:04:28 66° E 22:08:56 10° NNE
Cosmos 1300 Rocket 3.9 22:02:04 10° N 22:06:22 63° ENE 22:10:02 14° SSE
Aureole 3 3.6 22:04:37 20° SW 22:06:25 42° WNW 22:09:43 10° N
Cosmos 1455 2.1 22:04:01 10° NNW 22:07:27 61° W 22:09:28 23° S
Cosmos 1862 Rocket 4.2 22:05:04 16° SW 22:08:13 46° WNW 22:12:27 10° N
Cosmos 676 Rocket 4.3 22:04:33 14° SW 22:09:05 66° WNW 22:14:25 10° NNE
SJ 16-02 2.5 22:08:51 15° SSE 22:11:45 32° ESE 22:15:37 10° NE
RESURS DK-1 2.2 22:07:51 10° NW 22:11:56 76° WSW 22:15:34 13° SSE
Cosmos 1814 Rocket 4.0 22:09:13 10° NNW 22:14:28 83° WSW 22:19:32 11° SSE
Cosmos 2219 Rocket 2.4 22:12:05 10° NNW 22:17:46 74° NE 22:23:26 10° SE
SL-16 R/B 2.8 22:13:33 10° NW 22:18:48 39° WSW 22:22:42 17° S
ATLAS 2AS CENTAUR R/B 2.7 22:12:30 10° NW 22:19:28 85° SW 22:26:09 10° SE
COSMOS 2406 3.8 22:15:34 10° SW 22:21:13 54° NW 22:26:53 10° NNE
Cosmos 2322 4.4 22:22:09 10° NNW 22:27:48 58° NE 22:33:25 10° SE
Cosmos 2082 Rocket 3.2 22:25:04 10° WSW 22:30:30 43° NW 22:35:58 10° NNE
Cosmos 2360 Rocket 2.3 22:25:41 10° NW 22:31:16 58° WSW 22:36:34 11° SSE
Cosmos 2333 4.2 22:27:45 10° NW 22:33:29 73° WSW 22:39:13 10° SSE
Cosmos 2242 Rocket 4.1 22:30:58 14° S 22:34:38 54° E 22:39:04 10° NNE
Cosmos 839 Rocket 4.2 22:27:28 10° NW 22:34:55 67° SW 22:41:09 10° SSE
Cosmos 1745 Rocket 4.1 22:30:04 16° SSW 22:35:15 84° W 22:41:39 10° N
Cosmos 405 Rocket 4.3 22:33:59 10° N 22:37:16 31° ENE 22:40:34 10° SE
SL-16 R/B 4.0 22:31:45 10° ESE 22:37:25 38° ENE 22:43:06 10° N
Okean 2 Rocket 4.5 22:33:30 10° N 22:37:36 36° ENE 22:41:43 10° SE
CZ-2C R/B 3.4 22:34:48 10° SE 22:39:47 51° ENE 22:44:53 10° N
Okean 2 4.1 22:38:45 16° SW 22:41:40 41° WNW 22:45:28 10° N
Meteor 1-4 Rocket 3.2 22:42:38 16° SW 22:44:31 33° WNW 22:47:17 10° N
USA 267 3.5 22:38:43 10° ENE 22:45:07 54° SE 22:51:04 12° SW
H-2A R/B 3.5 22:41:56 10° N 22:45:47 29° WNW 22:49:34 10° WSW
Cosmos 2237 Rocket 3.8 22:45:53 10° NNW 22:51:12 38° NE 22:56:28 10° ESE
NPP 4.5 22:46:56 10° NNE 22:52:06 44° E 22:57:14 10° S
Cosmos 1315 Rocket 3.5 22:49:16 15° SW 22:52:15 43° WNW 22:56:04 10° N
Cosmos 1570 Rocket 4.1 22:47:29 10° NNW 22:52:50 89° WSW 22:58:11 10° SSE
COSMOS 2428 3.1 22:48:34 10° NNW 22:54:16 70° NE 22:59:57 10° SE
Cosmos 1782 Rocket 4.3 22:53:47 10° NNW 22:57:52 38° W 23:01:04 15° SSW
Cosmos 968 Rocket 3.5 22:56:50 14° SSW 23:01:14 81° WNW 23:06:26 10° NNE
H-2A R/B 4.2 22:58:29 10° NNE 23:02:20 44° E 23:06:07 10° S
Helios 1A Rocket 3.7 23:01:28 15° SSW 23:04:05 31° W 23:07:33 10° NNW
Cosmos 2208 Rocket 4.0 22:59:43 10° NNW 23:05:03 89° ENE 23:10:16 10° SSE
SL-4 R/B 3.0 23:02:20 15° SSW 23:05:20 33° SSE 23:09:18 10° E
Cosmos 2098 Rocket 3.9 23:01:01 10° NNW 23:06:37 81° W 23:13:00 10° S
Cosmos 1892 4.3 23:05:44 10° SSE 23:08:42 26° E 23:11:40 10° NNE
EXPRESS MD2 3.7 23:10:58 16° SW 23:12:37 30° SSE 23:16:06 10° E
Cosmos 2322 Rocket 3.3 23:08:38 10° NW 23:13:12 26° WSW 23:17:17 12° SSW
MOZ.5/SAFIR/RUBIN 5/SL-8 4.1 23:10:18 11° S 23:14:37 49° W 23:19:11 10° NNW
Resurs 1-4 Rocket 2.7 23:10:06 10° NNE 23:15:16 52° E 23:20:23 10° S
DNEPR-1 R/B 4.5 23:08:48 10° NW 23:15:59 71° SW 23:21:44 10° SSE
Cosmos 1408 2.4 23:15:08 15° SSW 23:17:23 51° WNW 23:20:20 10° N
Meteor 1-24 Rocket 4.0 23:13:49 10° S 23:19:48 79° ESE 23:25:43 10° NNE
Cosmos 1242 Rocket 3.2 23:19:14 13° SW 23:21:23 29° WNW 23:23:58 10° N
Nadezhda 3 Rocket 4.4 23:16:11 10° N 23:22:34 67° ENE 23:28:50 10° SSE
CZ-2D R/B 2.7 23:17:42 10° NNE 23:23:06 58° E 23:28:25 10° S
USA 234 3.7 23:17:49 10° SSE 23:23:56 40° SW 23:30:04 10° WNW
Cosmos 2297 Rocket 4.3 23:22:36 10° SE 23:26:26 19° E 23:30:18 10° ENE
OPS 8737 4.2 23:24:19 10° WNW 23:27:09 47° SW 23:30:06 10° SSE
Cosmos 2333 Rocket 3.3 23:24:07 10° NW 23:28:52 27° WSW 23:33:37 10° SSW
CRYOSAT 2 4.4 23:24:36 10° N 23:29:32 89° W 23:34:26 10° S
SL-27 R/B 2.9 23:27:58 12° SW 23:30:22 36° WNW 23:33:01 10° NNE
Cosmos 1703 3.3 23:29:18 12° SSW 23:32:44 62° WNW 23:36:26 10° N
Cosmos 2154 Rocket 4.5 23:29:43 10° S 23:35:47 61° E 23:41:55 10° NNE
Genesis I 4.0 23:33:52 10° WSW 23:37:15 42° NNW 23:40:42 10° NE
IDEFIX/ARIANE 42P 2.6 23:32:01 10° NNE 23:37:19 88° WNW 23:42:35 10° SSW
Cosmos 1455 Rocket 4.4 23:35:26 10° N 23:39:38 42° ENE 23:43:49 10° SE
NOSS 5 (C) 4.2 23:37:18 10° NW 23:40:34 86° SW 23:43:44 10° SE
ADEOS II 2.6 23:39:11 10° NNE 23:44:23 59° ESE 23:49:33 10° S
RESURS DK-1 4.4 23:47:28 10° W 23:48:56 12° WSW 23:50:24 10° SW
CZ-4C R/B 4.2 23:47:01 10° SE 23:49:22 14° ESE 23:51:55 10° ENE
SJ 16-02 2.2 23:45:57 10° SW 23:50:03 40° NW 23:54:08 10° NNE
Cosmos 1825 2.2 23:49:06 10° S 23:52:29 68° E 23:55:56 10° NNE
Cosmos 2181 Rocket 4.5 23:47:13 10° NNW 23:53:13 45° W 23:59:04 10° SSW
Cosmos 1674 Rocket 3.6 23:50:52 10° SSW 23:55:18 83° WNW 23:59:45 10° N
